Hutchinson, KS

10:34 PM CDT on September 17, 2019 (GMT -0500)
Hutchinson Municipal

Weather History for KHUT - July, 2019

Change the Weather History Date:

Friday, July 26, 2019

  Actual Average Record
Temperature  
Mean Temperature 81 °F -  
Max Temperature 93 °F 90 °F 107 °F (2002)
Min Temperature 69 °F 66 °F 48 °F (2004)
Cooling Degree Days 16    
Growing Degree Days 31 (Base 50)    
Moisture  
Dew Point 56 °F    
Average Humidity 45    
Maximum Humidity 63    
Minimum Humidity 28    
Precipitation  
Precipitation 0.00 in - - ()
Sea Level Pressure  
Sea Level Pressure 30.04 in    
Wind  
Wind Speed 13 mph (South)    
Max Wind Speed 22 mph    
Max Gust Speed 29 mph    
Visibility 10 miles    
Events      
Averages and records for this station are not official NWS values.
T = Trace of Precipitation, MM = Missing Value Source: NWS Daily Summary

Daily Weather History Graph

Daily Weather History Graph

Search for Another Location

Airport or City:

Astronomy

Jul. 26, 2019 Rise Set
Actual Time 6:29 AM CDT 8:46 PM CDT
Civil Twilight 5:59 AM CDT 9:16 PM CDT
Nautical Twilight 5:22 AM CDT 9:52 PM CDT
Astronomical Twilight 4:42 AM CDT 10:32 PM CDT
Moon 1:40 AM CDT (7/26) 3:34 PM CDT (7/26)
Length of Visible Light 15h 16m
Length of Day
14h 17m
Waning Crescent, 34% of the Moon is Illuminated
Jul 26
Waning Crescent
Jul 31
New
Aug 7
First Quarter
Aug 15
Full
Aug 23
Last Quarter

Hourly Weather History & Observations

Time (CDT) Temp. Heat Index Dew Point Humidity Pressure Visibility Wind Dir Wind Speed Gust Speed Precip Events Conditions
12:52 AM 73.9 °F - 55.9 °F 53% 30.02 in 10.0 mi SSE 11.5 mph - N/A   Clear
1:52 AM 73.0 °F - 55.0 °F 53% 30.01 in 10.0 mi SSE 10.4 mph - N/A   Clear
2:52 AM 72.0 °F - 55.0 °F 55% 30.02 in 10.0 mi SSE 9.2 mph - N/A   Scattered Clouds
3:52 AM 71.1 °F - 55.0 °F 57% 30.03 in 10.0 mi South 9.2 mph - N/A   Clear
4:52 AM 71.1 °F - 55.0 °F 57% 30.03 in 10.0 mi South 10.4 mph - N/A   Clear
5:52 AM 70.0 °F - 55.0 °F 59% 30.04 in 10.0 mi South 10.4 mph - N/A   Clear
6:52 AM 69.1 °F - 55.9 °F 63% 30.04 in 10.0 mi South 10.4 mph - N/A   Clear
7:52 AM 72.0 °F - 55.9 °F 57% 30.06 in 10.0 mi South 13.8 mph - N/A   Clear
8:52 AM 75.0 °F - 57.0 °F 53% 30.07 in 10.0 mi South 17.3 mph - N/A   Clear
9:52 AM 80.1 °F 80.4 °F 57.0 °F 45% 30.06 in 10.0 mi South 18.4 mph 25.3 mph N/A   Clear
10:52 AM 84.0 °F 83.3 °F 57.0 °F 40% 30.06 in 10.0 mi South 18.4 mph 26.5 mph N/A   Clear
11:52 AM 87.1 °F 85.9 °F 57.0 °F 36% 30.06 in 10.0 mi South 20.7 mph 27.6 mph N/A   Clear
12:52 PM 90.0 °F 88.1 °F 55.9 °F 31% 30.05 in 10.0 mi South 21.9 mph 28.8 mph N/A   Clear
1:52 PM 91.0 °F 88.9 °F 55.0 °F 29% 30.04 in 10.0 mi South 16.1 mph 27.6 mph N/A   Clear
2:52 PM 91.9 °F 90.0 °F 55.0 °F 29% 30.02 in 10.0 mi South 15.0 mph 25.3 mph N/A   Clear
3:52 PM 93.0 °F 91.1 °F 55.0 °F 28% 30.02 in 10.0 mi South 19.6 mph 27.6 mph N/A   Clear
4:52 PM 91.0 °F 88.7 °F 54.0 °F 28% 30.01 in 10.0 mi South 13.8 mph 26.5 mph N/A   Clear
5:52 PM 89.1 °F 87.1 °F 55.0 °F 31% 30.00 in 10.0 mi SSW 13.8 mph - N/A   Clear
6:52 PM 88.0 °F 86.5 °F 55.9 °F 34% 30.00 in 10.0 mi SSW 15.0 mph - N/A   Clear
7:52 PM 84.0 °F 83.0 °F 55.9 °F 38% 30.01 in 10.0 mi SSW 11.5 mph - N/A   Clear
8:52 PM 78.1 °F - 55.9 °F 46% 30.03 in 10.0 mi South 5.8 mph - N/A   Clear
9:52 PM 75.0 °F - 55.9 °F 51% 30.04 in 10.0 mi South 6.9 mph - N/A   Clear
10:52 PM 73.9 °F - 57.0 °F 55% 30.07 in 10.0 mi SSE 5.8 mph - N/A   Clear
11:52 PM 73.0 °F - 57.0 °F 57% 30.06 in 10.0 mi SE 8.1 mph - N/A   Clear